524  
NZUS99 KDVN 251310  
HRRRRR  
HOURLY WEATHER ROUNDUP  
NATIONAL WEATHER SERVICE QUAD CITIES IA IL  
800 AM CDT MON SEP 25 2017  
 
NOTE: "FAIR" INDICATES FEW OR NO CLOUDS BELOW 12,000 FEET WITH  
NO SIGNIFICANT WEATHER AND/OR OBSTRUCTIONS TO VISIBILITY.  
------------------------------------------------------------------  
 
CITY SKY/WX TMP DP RH WIND PRES REMARKS  
BURLINGTON SUNNY 69 65 86 S3 29.98R  
CEDAR RAPIDS MOSUNNY 66 63 90 SE5 29.96S  
DAVENPORT SUNNY 68 63 84 SE5 30.00R  
DUBUQUE SUNNY 67 61 81 S3 29.99S  
IOWA CITY NOT AVBL  
MOLINE SUNNY 69 62 78 E3 29.98R  
------------------------------------------------------------------  
THE STATIONS BELOW ARE NOT NWS STATIONS AND ARE NOT SUBJECT TO NWS  
QUALITY CONTROL. SOME STATIONS DO NOT REPORT WEATHER SUCH AS FOG.  
* - STATIONS THAT REPORT TMP AND DP IN WHOLE DEGREES CELSIUS, WHICH  
ARE THEN CONVERTED TO FAHRENHEIT.  
------------------------------------------------------------------  
 
CITY SKY/WX TMP DP RH WIND PRES REMARKS  
CLINTON SUNNY N/A N/A N/A E6 30.00R  
FAIRFIELD * SUNNY 70 63 78 S3 29.96F  
FORT MADISON * SUNNY 70 66 88 CALM 29.99S  
FREEPORT SUNNY 62 60 91 CALM 30.02S  
INDEPENDENCE * MOSUNNY 65 62 90 CALM 29.97S  
KEOKUK * SUNNY 68 66 94 CALM 29.97F  
MACOMB SUNNY 63 61 93 CALM 30.01S  
MONTICELLO * SUNNY 66 63 88 CALM 29.97S  
MT PLEASANT SUNNY 68 65 92 CALM 29.98S  
MUSCATINE * SUNNY 66 64 94 CALM 29.98S  
SAVANNA MOSUNNY 64 62 93 N3 30.00R  
STERLING/R.F. MOSUNNY 64 62 93 CALM 30.01R  
VINTON * MOSUNNY 68 64 84 CALM 29.96S  
WASHINGTON * SUNNY 66 64 94 S5 29.98S  
------------------------------------------------------------------  
 
 
CLICK HERE TO GO TO PREVIOUS BULLETINS.

The Nexlab IL Page
The Nexlab IA Page
The Nexlab MO Page Main Text Page